STARLINK-36725

Last updated on Sun Apr 12 2026 00:02:08 GMT+0000 (Coordinated Universal Time)

1 68285U 26055Z 26101.50002315 .00047902 00000+0 24512-3 0 9991 2 68285 53.1575 172.6621 0001194 83.7438 279.7458 15.80852434 4905
UTC large
Height (km)
Speed (km/s)
/
Latitude / Longitude
Inclination (degrees)
Orbital Period (minutes)
Azimuth
Elevation
Range (km)
Doppler Factor

Next 0 passes for location: London (51.5072 / 0.1276)

Sorry there are no passes over London.
STARLINK-36725